Location: Newark
(40.9833°N, 0.0333°W)
Time: 02:52:55
(UTC+00:00)

Transit 2A Rocket - Pass Details

Date: 30 October 2020
Orbit: 588 x 914 km, 66.7° (Epoch: 26 November)

Event Time Altitude Azimuth Distance (km) Brightness Sun altitude
Rises 16:21:22 0° 340° (NNW) 3,313 8.2 5.6°
Reaches altitude 10° 16:24:50 10° 2° (N) 2,307 7.3 5.0°
Maximum altitude 16:28:05 16° 40° (NE) 1,839 6.5 4.5°
Drops below altitude 10° 16:31:09 10° 79° (E) 2,165 6.7 3.9°
Sets 16:34:14 0° 101° (E) 3,011 7.6 3.4°
